CT1ETE Guimaraes PT current weather conditions

sailwx.info

Wind from 109

Air temperature 8.3° C
Dewpoint 3.4° C

Last reported at 2017-Dec-16 10:09 UTC.
Time now 2017-Dec-16 11:15 UTC

Location: N 41°27' W 008°16'.
View on Google Maps.

See reports from other nearby stations

  
Tides and Currents Weather Stations Pressure Air Temp Water Temp Dewpoint Dewpoint Depression Visibility Wind Speed Wind Dir Waves Ship Positions
date/time (UTC)wind fromknots sea level pressurealtimeterstation pressurevisibilityair tempwater tempwave heightnotes
2017-Dec-16 10:09 109 8.3
2017-Dec-16 09:53 136 8.3
2017-Dec-16 09:38 136 7.8
2017-Dec-16 09:23 049 6.7
2017-Dec-16 09:08 040 6.7
2017-Dec-16 08:53 355 5.6
2017-Dec-16 08:38 355 5.0
2017-Dec-16 08:23 355 4.4
2017-Dec-16 08:08 351 4.4
2017-Dec-16 07:53 351 4.4
2017-Dec-16 07:38 196 4.4
2017-Dec-16 07:23 125 4.4
2017-Dec-16 07:08 080 5.0
2017-Dec-16 06:53 067 5.0
2017-Dec-16 06:38 067 5.6
2017-Dec-16 06:23 115 6.1
2017-Dec-16 06:08 115 5.6
2017-Dec-16 05:53 096 5.0
2017-Dec-16 05:38 119 5.0
2017-Dec-16 05:23 051 5.6
2017-Dec-16 05:08 161 5.6
2017-Dec-16 04:53 154 5.6
2017-Dec-16 04:38 145 5.6
2017-Dec-16 04:23 080 5.6
2017-Dec-16 04:08 080 5.6
2017-Dec-16 03:53 080 5.6
2017-Dec-16 03:38 085 5.6
2017-Dec-16 03:23 086 5.0
2017-Dec-16 03:08 032 5.6
2017-Dec-16 02:53 032 5.6
2017-Dec-16 02:38 314 6.1
2017-Dec-16 02:23 313 5.6
2017-Dec-16 02:08 313 5.6
2017-Dec-16 01:53 313 5.6
2017-Dec-16 01:38 026 6.1
2017-Dec-16 01:23 026 6.1
2017-Dec-16 01:08 026 6.1
2017-Dec-16 00:53 026 6.7
2017-Dec-16 00:38 013 6.1
2017-Dec-16 00:23 312 6.7
2017-Dec-16 00:08 198 6.7
2017-Dec-15 23:53 132 0 gusting 5 6.7
2017-Dec-15 23:38 096 1 gusting 5 6.7
2017-Dec-15 23:23 005 1 gusting 4 7.2
2017-Dec-15 23:08 034 0 gusting 5 6.7
2017-Dec-15 22:53 119 6.7
2017-Dec-15 22:38 109 0 gusting 6 6.7
2017-Dec-15 22:23 117 6.1
2017-Dec-15 22:08 101 0 gusting 3 6.7
2017-Dec-15 21:53 305 1 gusting 8 6.7
2017-Dec-15 21:38 275 4 gusting 7 7.2
2017-Dec-15 21:23 294 4 gusting 6 7.8
2017-Dec-15 21:08 325 3 gusting 6 7.8
2017-Dec-15 20:53 288 5 gusting 11 7.8
2017-Dec-15 20:38 344 1 gusting 7 7.8
2017-Dec-15 20:23 303 0 gusting 7 7.2
2017-Dec-15 20:08 254 2 gusting 6 7.8
2017-Dec-15 19:53 159 0 gusting 6 7.2
2017-Dec-15 19:38 256 7.2
2017-Dec-15 19:23 248 0 gusting 7 7.2
2017-Dec-15 19:08 272 7.2
2017-Dec-15 18:53 005 7.8
2017-Dec-15 18:38 036 7.8
2017-Dec-15 18:23 043 7.8
2017-Dec-15 18:08 005 0 gusting 7 8.3
2017-Dec-15 17:53 065 3 gusting 8 7.8
2017-Dec-15 17:38 090 1 gusting 5 8.3
2017-Dec-15 17:23 033 1 gusting 7 8.3
2017-Dec-15 17:08 333 5 gusting 9 8.9
2017-Dec-15 16:53 324 5 gusting 9 8.9
2017-Dec-15 16:38 296 3 gusting 6 9.4
2017-Dec-15 16:23 302 2 gusting 8 9.4
2017-Dec-15 16:08 303 3 gusting 7 9.4
2017-Dec-15 15:53 285 3 gusting 7 9.4
2017-Dec-15 15:38 341 2 gusting 7 9.4
2017-Dec-15 15:23 313 9.4
2017-Dec-15 15:08 324 2 gusting 6 9.4
2017-Dec-15 14:53 321 4 gusting 9 9.4
2017-Dec-15 14:38 302 6 gusting 10 10.0
2017-Dec-15 14:23 290 4 gusting 10 10.6
2017-Dec-15 14:08 337 5 gusting 12 10.6
2017-Dec-15 13:53 299 5 gusting 10 10.6
2017-Dec-15 13:38 267 5 gusting 10 10.6
2017-Dec-15 13:23 271 6 gusting 11 10.6
2017-Dec-15 13:08 278 6 gusting 11 10.6
2017-Dec-15 12:53 285 6 gusting 11 10.6
2017-Dec-15 12:38 313 6 gusting 12 10.6
2017-Dec-15 12:23 251 5 gusting 9 10.6
2017-Dec-15 12:08 284 6 gusting 11 10.0
2017-Dec-15 11:53 277 7 gusting 13 10.0
2017-Dec-15 11:38 299 7 gusting 15 10.0
2017-Dec-15 11:23 266 8 gusting 15 10.0
2017-Dec-15 11:08 253 6 gusting 10 10.0
2017-Dec-15 10:53 265 5 gusting 10 10.0
2017-Dec-15 10:38 267 6 gusting 9 10.0
2017-Dec-15 10:23 257 4 gusting 8 9.4
2017-Dec-15 10:08 245 5 gusting 10 9.4
2017-Dec-15 09:53 260 6 gusting 12 9.4
2017-Dec-15 09:38 255 6 gusting 11 9.4
2017-Dec-15 09:23 261 6 gusting 10 8.9
2017-Dec-15 09:08 236 5 gusting 10 8.9
2017-Dec-15 08:53 232 5 gusting 9 8.9
2017-Dec-15 08:38 244 6 gusting 10 8.9
2017-Dec-15 08:23 262 6 gusting 11 8.9
2017-Dec-15 08:08 265 7 gusting 13 8.9
2017-Dec-15 07:53 292 7 gusting 15 9.4
2017-Dec-15 07:38 274 6 gusting 13 10.6
2017-Dec-15 07:23 258 6 gusting 10 10.6
2017-Dec-15 07:08 255 6 gusting 9 10.6
2017-Dec-15 06:53 281 5 gusting 9 10.6
2017-Dec-15 06:38 242 3 gusting 7 10.6
2017-Dec-15 06:23 234 2 gusting 6 10.6
2017-Dec-15 06:08 236 3 gusting 6 10.6
2017-Dec-15 05:53 243 3 gusting 8 10.6
2017-Dec-15 05:38 238 4 gusting 8 10.6
2017-Dec-15 05:23 246 5 gusting 8 10.6
2017-Dec-15 05:08 219 5 gusting 8 10.6
2017-Dec-15 04:53 232 3 gusting 7 10.6
2017-Dec-15 04:38 234 3 gusting 7 10.6
2017-Dec-15 04:23 208 3 gusting 7 10.6
2017-Dec-15 04:08 229 3 gusting 7 10.6
2017-Dec-15 03:53 223 3 gusting 7 10.6
2017-Dec-15 03:38 239 2 gusting 7 10.0
2017-Dec-15 03:23 239 3 gusting 7 10.0
2017-Dec-15 03:08 237 3 gusting 7 10.0
2017-Dec-15 02:53 235 5 gusting 13 10.0
2017-Dec-15 02:38 229 4 gusting 13 10.0
2017-Dec-15 02:23 243 6 gusting 13 10.6
2017-Dec-15 02:08 229 4 gusting 13 10.6
2017-Dec-15 01:53 200 6 gusting 13 10.6
2017-Dec-15 01:38 231 5 gusting 9 10.6
2017-Dec-15 01:23 238 5 gusting 9 10.6
2017-Dec-15 01:08 243 3 gusting 8 10.6
2017-Dec-15 00:53 226 5 gusting 8 10.6
2017-Dec-15 00:38 216 6 gusting 10 10.6
2017-Dec-15 00:23 225 6 gusting 10 10.6
2017-Dec-14 18:08 246 6 gusting 12 10.6
2017-Dec-14 17:53 239 6 gusting 11 11.1
2017-Dec-14 17:38 263 6 gusting 9 11.1
2017-Dec-14 17:23 240 4 gusting 7 11.1
2017-Dec-14 17:08 240 5 gusting 8 11.7
2017-Dec-14 16:52 234 5 gusting 11 11.7
2017-Dec-14 16:37 247 7 gusting 13 12.2
2017-Dec-14 16:22 245 7 gusting 13 12.2
2017-Dec-14 16:07 222 6 gusting 13 12.8
2017-Dec-14 15:52 238 7 gusting 12 12.8
2017-Dec-14 15:37 250 9 gusting 15 12.8
2017-Dec-14 15:22 257 8 gusting 17 13.3
2017-Dec-14 15:07 221 8 gusting 19 13.3
2017-Dec-14 14:52 214 8 gusting 15 13.3
2017-Dec-14 14:37 217 10 gusting 18 13.3
2017-Dec-14 14:22 248 9 gusting 16 12.8
2017-Dec-14 14:07 234 7 gusting 18 12.8
2017-Dec-14 13:52 231 9 gusting 18 12.8
2017-Dec-14 13:37 234 10 gusting 18 12.8
2017-Dec-14 13:22 213 6 gusting 14 12.8
2017-Dec-14 13:07 202 5 gusting 11 12.8
2017-Dec-14 12:52 263 6 gusting 14 12.8
2017-Dec-14 12:37 261 7 gusting 16 12.8
2017-Dec-14 12:22 224 12 gusting 19 12.8
2017-Dec-14 12:07 230 7 gusting 17 12.8
2017-Dec-14 11:52 238 9 gusting 16 12.8
2017-Dec-14 11:37 232 7 gusting 13 12.8
2017-Dec-14 11:22 261 7 gusting 14 12.8
2017-Dec-14 11:07 223 7 gusting 13 12.8